Aérodrome :
LOGIN :

S'inscrire | Disclaimer

   EN    FR    IT 

 










Légende :    VFR   VFR Marginal   IFR   IFR Intensif   IFR Très Intensif
Visi : 
Plafond : 
>= 8 km
>= 3000ft
5 à 8 km
1000 à 3000 ft
1500m à 5 km
500 à 1000 ft
800 à 1500m
200 à 500 ft
< 800m
< 200 ft
Symboles :   Orages  Brouillard  Fortes neiges  Fortes précipitations  Vent > 20 kt
SIGMETs :   Divers  Orages  Givrage  Turbulence  Onde Orograph.  Cendres Volcan.






- Altitude de l'aérodrome : 446 ft
- Code IATA : VNE


LFRV - Vannes-Meucon

DERNIER METAR :
  • 270300Z AUTO 21004KT 180V250 3400 BR OVC003 09/09 Q1010

METARs EXPIRÉS :
  • 270230Z AUTO 23004KT 200V260 5000 BR OVC002 09/09 Q1010
  • 270200Z AUTO 23005KT 180V260 8000 OVC003 09/09 Q1010
  • 270130Z AUTO 22004KT 160V270 5000 BR OVC002 09/09 Q1010
  • 270100Z AUTO 22005KT 180V250 5000 BR OVC002 09/09 Q1011
  • 270030Z AUTO 23006KT 190V260 2200 BR VV/// ///TCU 09/09 Q1011

TAF N/A



MET'MAP, la Météo Aéronautique d'un coup d'oeil ! - Copyright ORBIFLY Décembre 2007 - Disclaimer

ORBIFLY MET'MAP TEAM :

Programmation & Développement : Alexandra Zaïnal
Sur une idée originale de : Baudouin d'Aumeries
Assistance à la programmation : Marc-Olivier Méhu
Soutien technique & logistique : Manuel Goepfert

Contact : metmap@orbifly.com




SOURCES & CREDITS :

   NOAA